Location: Miami, Florida
(25.6830°N, 80.1700°W)
Time: 01:19:49
(UTC-04:00)

ISS - Visible Passes

Search period start: 16 December 2018 00:00
Search period end: 26 December 2018 00:00
Orbit: 401 x 408 km, 51.6° (Epoch: 16 December)

Date Brightness Start Highest point End Pass type
(mag) Time Alt. Az. Time Alt. Az. Time Alt. Az.
17 Dec -0.6 19:05:51 10° W 19:08:07 18° SW 19:10:22 10° S visible
19 Dec -0.2 07:35:40 10° SSE 07:37:19 13° SE 07:38:59 10° E visible
21 Dec -2.4 07:26:00 10° SSW 07:29:07 42° SE 07:32:15 10° NE visible
22 Dec -0.8 06:34:42 10° S 06:37:00 18° SE 06:39:18 10° E visible
23 Dec -3.7 07:17:49 10° SW 07:21:00 50° NW 07:24:12 10° NNE visible
24 Dec -3.4 06:28:15 51° S 06:28:46 61° SE 06:32:00 10° NE visible
25 Dec -2.2 07:12:42 17° NW 07:13:00 17° NW 07:15:17 10° N visible
